Location: �clusier
(49.9361°N, 2.7869°E)
Time: 05:51:18
(UTC+00:00)

Cosmos 2016 Rocket - Pass Details

Date: 25 October 2021
Orbit: 947 x 1000 km, 83.0° (Epoch: 05 December)

Event Time Altitude Azimuth Distance (km) Brightness Sun altitude
Rises 04:17:46 0° 1° (N) 3,632 7.1 -21.3°
Reaches altitude 10° 04:22:48 10° 37° (NE) 2,679 6.9 -20.5°
Maximum altitude 04:24:19 11° 52° (NE) 2,613 7.0 -20.3°
Drops below altitude 10° 04:25:50 10° 67° (ENE) 2,677 7.4 -20.1°
Sets 04:30:49 0° 102° (ESE) 3,622 8.4 -19.3°
